Terminal Aerodrome Forecast
Issued by NWS

Home | Current Version | Previous Version | Text Only | Print | Product List | Glossary On
Versions: 1 2 3 4 5 6 7 8 9 10 11 12 13 14 15 16 17 18 19 20 21
000
FTUS43 KEAX 050500
TAFMKC
TAF
KMKC 050520Z 0506/0606 15005KT 6SM HZ SCT250
     FM051300 17012KT P6SM SCT040
     FM052300 16007KT P6SM FEW040=

USA.gov is the U.S. government's official web portal to all federal, state and local government web resources and services.